Tracking 34305 objects as of 7-Jun-2026
HD Live streaming from Space Station
objects crossing your sky now

COSMOS 825

Track COSMOS 825 now!
10-day predictions
COSMOS 825 is classified as:


NORAD ID: 8889
Int'l Code: 1976-054A
Perigee: 1,401.9 km
Apogee: 1,493.6 km
Inclination: 74.0 °
Period: 114.7 minutes
Semi major axis: 7818 km
RCS: 0.6977 m2 (medium)
Launch date: June 15, 1976
Source: Commonwealth of Independent States (former USSR) (CIS)
Launch site: PLESETSK MISSILE AND SPACE COMPLEX (PKMTR)
Your satellite tracking list
Your tracking list is empty




NASA's NSSDC Master Catalog

Two Line Element Set (TLE):
1 08889U 76054A   26157.68276216 -.00000006  00000-0  58460-4 0  9998
2 08889  74.0023  36.6500 0058639 158.9883 265.6427 12.55743098290865
Source of the keplerian elements: AFSPC